This demonstration page uses our WeatherBlox Daily Observations layout. Learn more.

Hourly Observations for January 29, 2015

Temp ( °F °C ) Dew Point ( °F °C ) Humidity (%) Winds ( mph kmh ) Pressure ( in mb ) Visibility ( mi km ) Precip ( " mm )
12:15 am 00:15 Mostly Cloudy 43 6.1 32 0 65 65 N 25 41 30.18 1022 10 16.0934 0 0
12:35 am 00:35 Cloudy 40 4.5 30 -1 68 68 NNW 28 44 30.21 1023 10 16.0934 0 0
12:55 am 00:55 Cloudy 38 3.6 30 -1.2 71 71 N 26 43 30.24 1024 10 16.0934 0 0
1:15 am 01:15 Cloudy 38 3.5 30 -1.2 72 72 NNW 33 54 30.24 1024 10 16.0934 0 0
1:35 am 01:35 Cloudy 38 3.2 29 -1.5 72 72 N 26 43 30.27 1025 10 16.0934 0 0
1:55 am 01:55 Cloudy 38 3.3 30 -1.2 73 73 N 25 41 30.3 1026 10 16.0934 0 0
2:15 am 02:15 Cloudy 38 3.1 29 -1.5 72 72 NNW 26 43 30.3 1026 10 16.0934 0 0
2:35 am 02:35 Cloudy 38 3.1 29 -1.9 70 70 N 24 39 30.3 1026 10 16.0934 0 0
2:55 am 02:55 Cloudy 38 3.1 28 -2.1 69 69 N 23 37 30.3 1026 10 16.0934 0 0
3:15 am 03:15 Cloudy 37 3 28 -2.4 68 68 N 15 24 30.33 1027 10 16.0934 0 0
3:35 am 03:35 Cloudy 37 3 27 -2.6 67 67 NNW 20 31 30.33 1027 10 16.0934 0 0
3:55 am 03:55 Mostly Cloudy 37 2.5 27 -3 67 67 NNW 17 28 30.33 1027 10 16.0934 0 0
4:15 am 04:15 Partly Cloudy 36 2.1 25 -3.7 66 66 N 22 35 30.33 1027 10 16.0934 0 0
4:35 am 04:35 Partly Cloudy 35 1.7 25 -3.8 67 67 N 16 26 30.33 1027 10 16.0934 0 0
4:55 am 04:55 Partly Cloudy 35 1.5 24 -4.2 66 66 NNW 18 30 30.39 1029 10 16.0934 0 0
5:15 am 05:15 Clear 34 1.1 24 -4.5 67 67 NNW 13 20 30.39 1029 10 16.0934 0 0
5:35 am 05:35 Mostly Cloudy 35 1.5 24 -4.5 65 65 N 14 22 30.39 1029 10 16.0934 0 0
5:55 am 05:55 Cloudy 36 2 24 -4.5 62 62 N 15 24 30.39 1029 10 16.0934 0 0
6:15 am 06:15 Cloudy 36 2.1 25 -4.1 64 64 NNW 9 15 30.42 1030 10 16.0934 0 0
6:35 am 06:35 Cloudy 37 2.5 25 -4 63 63 N 14 22 30.39 1029 10 16.0934 0 0
6:55 am 06:55 Cloudy 37 2.9 25 -3.7 62 62 N 26 43 30.42 1030 10 16.0934 0 0
7:15 am 07:15 Cloudy 37 2.5 23 -5 58 58 N 26 43 30.42 1030 10 16.0934 0 0
7:35 am 07:35 Cloudy 36 2.2 23 -5 59 59 N 18 30 30.48 1032 10 16.0934 0 0
7:55 am 07:55 Cloudy 36 2 24 -4.5 62 62 NNW 22 35 30.48 1032 10 16.0934 0 0
8:15 am 08:15 Cloudy 36 2 24 -4.5 62 62 N 26 43 30.48 1032 10 16.0934 0 0
8:35 am 08:35 Cloudy 36 2 24 -4.5 62 62 N 18 30 30.5 1033 10 16.0934 0 0
8:55 am 08:55 Cloudy 36 2.2 23 -5 59 59 N 21 33 30.5 1033 10 16.0934 0 0
9:15 am 09:15 Cloudy 36 2.3 23 -4.8 60 60 N 14 22 30.5 1033 10 16.0934 0 0
9:35 am 09:35 Cloudy 37 2.6 24 -4.6 59 59 N 15 24 30.53 1034 10 16.0934 0 0
9:55 am 09:55 Cloudy 37 2.9 24 -4.5 59 59 N 18 30 30.53 1034 10 16.0934 0 0
10:15 am 10:15 Cloudy 38 3.3 24 -4.3 58 58 N 18 30 30.53 1034 10 16.0934 0 0
10:35 am 10:35 Partly Cloudy 39 3.7 24 -4.3 56 56 N 15 24 30.5 1033 10 16.0934 0 0
10:55 am 10:55 Mostly Cloudy 39 3.8 24 -4.5 55 55 N 17 28 30.53 1034 10 16.0934 0 0
11:15 am 11:15 Mostly Cloudy 40 4.5 24 -4.2 54 54 NNW 20 31 30.53 1034 10 16.0934 0 0
11:35 am 11:35 Partly Cloudy 40 4.3 24 -4.2 54 54 NNW 13 20 30.53 1034 10 16.0934 0 0
11:55 am 11:55 Partly Cloudy 40 4.5 24 -4.5 52 52 NNW 16 26 30.53 1034 10 16.0934 0 0
12:15 pm 12:15 Sunny 41 5.1 24 -4.6 50 50 NNW 20 31 30.53 1034 10 16.0934 0 0
12:35 pm 12:35 Sunny 42 5.4 24 -4.4 50 50 NNW 16 26 30.53 1034 10 16.0934 0 0
12:55 pm 12:55 Sunny 42 5.7 24 -4.7 48 48 NNW 16 26 30.53 1034 10 16.0934 0 0
1:15 pm 13:15 Sunny 42 5.7 23 -4.9 47 47 N 15 24 30.5 1033 10 16.0934 0 0
1:35 pm 13:35 Sunny 43 6.3 23 -4.8 45 45 N 16 26 30.5 1033 10 16.0934 0 0
1:55 pm 13:55 Sunny 44 6.5 23 -4.8 45 45 N 14 22 30.48 1032 10 16.0934 0 0
2:15 pm 14:15 Sunny 44 6.9 23 -4.8 43 43 NW 10 17 30.48 1032 10 16.0934 0 0
2:35 pm 14:35 Sunny 44 6.9 23 -5.1 42 42 NW 12 19 30.48 1032 10 16.0934 0 0
2:55 pm 14:55 Sunny 45 7.1 21 -5.9 39 39 NNW 13 20 30.48 1032 10 16.0934 0 0
3:15 pm 15:15 Sunny 45 7.2 21 -6.2 38 38 NNW 10 17 30.48 1032 10 16.0934 0 0
3:35 pm 15:35 Sunny 45 7.1 20 -6.4 38 38 NNW 8 13 30.48 1032 10 16.0934 0 0
3:55 pm 15:55 Sunny 45 7.1 19 -7.1 36 36 N 9 15 30.48 1032 10 16.0934 0 0
4:15 pm 16:15 Sunny 45 7.1 20 -6.9 37 37 NNW 8 13 30.48 1032 10 16.0934 0 0
4:35 pm 16:35 Sunny 44 6.8 19 -7.1 37 37 N 10 17 30.48 1032 10 16.0934 0 0
4:55 pm 16:55 Sunny 44 6.5 19 -7.4 37 37 NNW 3 6 30.48 1032 10 16.0934 0 0
5:15 pm 17:15 Sunny 43 6 19 -7.2 39 39 NNW 5 7 30.5 1033 10 16.0934 0 0
5:35 pm 17:35 Sunny 40 4.7 19 -7.3 42 42 NNW 6 9 30.5 1033 10 16.0934 0 0
5:55 pm 17:55 Clear 39 4.1 19 -7.3 44 44 N 3 6 30.53 1034 10 16.0934 0 0
6:15 pm 18:15 Clear 35 1.4 18 -7.8 51 51 Calm 30.56 1035 10 16.0934 0 0
6:35 pm 18:35 Clear 33 0.5 19 -7.4 56 56 Calm 30.56 1035 10 16.0934 0 0
6:55 pm 18:55 Clear 31 -0.5 18 -7.8 58 58 Calm 30.59 1036 10 16.0934 0 0
7:15 pm 19:15 Clear 31 -0.7 18 -7.7 59 59 Calm 30.59 1036 10 16.0934 0 0
7:35 pm 19:35 Clear 29 -1.7 18 -7.9 63 63 Calm 30.59 1036 10 16.0934 0 0
7:55 pm 19:55 Clear 25 -4 16 -9 69 69 Calm 30.62 1037 10 16.0934 0 0
8:15 pm 20:15 Clear 27 -2.6 17 -8.3 65 65 Calm 30.62 1037 10 16.0934 0 0
8:35 pm 20:35 Clear 25 -4.1 16 -8.9 70 70 Calm 30.62 1037 10 16.0934 0 0
8:55 pm 20:55 Clear 27 -2.9 18 -7.8 69 69 W 3 6 30.62 1037 10 16.0934 0 0
9:15 pm 21:15 Clear 23 -5.1 16 -9 74 74 Calm 30.62 1037 10 16.0934 0 0
9:35 pm 21:35 Clear 22 -5.6 15 -9.5 74 74 Calm 30.65 1038 10 16.0934 0 0
9:55 pm 21:55 Clear 23 -5.1 15 -9.2 73 73 Calm 30.62 1037 10 16.0934 0 0
10:15 pm 22:15 Clear 20 -6.5 14 -9.9 77 77 Calm 30.65 1038 10 16.0934 0 0
10:35 pm 22:35 Clear 22 -5.4 16 -9.1 75 75 Calm 30.62 1037 10 16.0934 0 0
10:55 pm 22:55 Clear 22 -5.4 15 -9.2 75 75 Calm 30.62 1037 10 16.0934 0 0
11:15 pm 23:15 Clear 22 -5.6 15 -9.7 73 73 Calm 30.65 1038 10 16.0934 0 0
11:35 pm 23:35 Clear 20 -6.5 15 -9.7 78 78 Calm 30.65 1038 10 16.0934 0 0
11:55 pm 23:55 Clear 20 -6.6 15 -9.7 79 79 Calm 30.65 1038 10 16.0934 0 0

Powered by AerisWeather